| time (UTC) | temp F | wind direction | speed MPH | gust MPH | rain 1hr in | rain 24hr in | rain mn in | humidity % | barometer mb |
| 20260506231337 | 59 | 93 | 2.0 | 3.0 | 0.00 | 0.00 | 0.00 | 79 | 1027.8 |
| 20260506230834 | 59 | 51 | 3.0 | 5.0 | 0.00 | 0.00 | 0.00 | 79 | 1027.9 |
| 20260506230330 | 60 | 91 | 1.0 | 5.0 | 0.00 | 0.00 | 0.00 | 78 | 1027.9 |
| 20260506225827 | 60 | 102 | 2.0 | 6.0 | 0.00 | 0.00 | 0.00 | 76 | 1027.7 |
| 20260506225324 | 60 | 15 | 1.0 | 5.0 | 0.00 | 0.00 | 0.00 | 76 | 1027.6 |
| 20260506224821 | 61 | 128 | 1.0 | 5.0 | 0.00 | 0.00 | 0.00 | 75 | 1027.8 |
| 20260506224318 | 61 | 123 | 2.0 | 3.0 | 0.00 | 0.00 | 0.00 | 76 | 1027.7 |
| 20260506223814 | 61 | 118 | 3.0 | 5.0 | 0.00 | 0.00 | 0.00 | 77 | 1027.7 |
| 20260506223309 | 61 | 114 | 1.0 | 3.0 | 0.00 | 0.00 | 0.00 | 76 | 1027.9 |
| 20260506222807 | 60 | 125 | 3.0 | 3.0 | 0.00 | 0.00 | 0.00 | 77 | 1027.8 |
| 20260506222305 | 60 | 143 | 2.0 | 4.0 | 0.00 | 0.00 | 0.00 | 77 | 1027.8 |
| 20260506221800 | 60 | 197 | 3.0 | 4.0 | 0.00 | 0.00 | 0.00 | 78 | 1027.9 |
| 20260506221258 | 59 | 20 | 1.0 | 2.0 | 0.00 | 0.00 | 0.00 | 80 | 1027.8 |
| 20260506220755 | 59 | 47 | 2.0 | 4.0 | 0.00 | 0.00 | 0.00 | 79 | 1028.1 |
| 20260506220250 | 60 | 44 | 2.0 | 3.0 | 0.00 | 0.00 | 0.00 | 79 | 1028.0 |
| 20260506215747 | 59 | 145 | 2.0 | 3.0 | 0.00 | 0.00 | 0.00 | 80 | 1028.0 |
| 20260506215242 | 59 | 77 | 2.0 | 2.0 | 0.00 | 0.00 | 0.00 | 80 | 1027.8 |
| 20260506214739 | 59 | 125 | 2.0 | 3.0 | 0.00 | 0.00 | 0.00 | 80 | 1027.9 |
| 20260506214236 | 59 | 45 | 2.0 | 5.0 | 0.00 | 0.00 | 0.00 | 79 | 1027.9 |
| 20260506213735 | 60 | 84 | 3.0 | 3.0 | 0.00 | 0.00 | 0.00 | 78 | 1028.1 |
| 20260506213231 | 60 | 91 | 2.0 | 4.0 | 0.00 | 0.00 | 0.00 | 80 | 1028.0 |
| 20260506212729 | 59 | 91 | 3.0 | 4.0 | 0.00 | 0.00 | 0.00 | 82 | 1028.0 |
| 20260506212224 | 59 | 77 | 0.0 | 5.0 | 0.00 | 0.00 | 0.00 | 84 | 1028.0 |
| 20260506211720 | 59 | 39 | 3.0 | 4.0 | 0.00 | 0.00 | 0.00 | 84 | 1027.9 |
| 20260506211216 | 58 | 103 | 3.0 | 3.0 | 0.00 | 0.00 | 0.00 | 84 | 1027.9 |
| 20260506210713 | 58 | 68 | 2.0 | 3.0 | 0.00 | 0.00 | 0.00 | 85 | 1028.1 |
| 20260506210210 | 58 | 111 | 1.0 | 3.0 | 0.00 | 0.00 | 0.00 | 85 | 1027.9 |
| 20260506205707 | 57 | 280 | 0.0 | 2.0 | 0.00 | 0.00 | 0.00 | 85 | 1028.0 |
| 20260506205202 | 57 | 339 | 0.0 | 2.0 | 0.00 | 0.00 | 0.00 | 86 | 1028.0 |
| 20260506204700 | 57 | 7 | 1.0 | 3.0 | 0.00 | 0.00 | 0.00 | 86 | 1028.1 |
| 20260506204156 | 56 | 195 | 0.0 | 2.0 | 0.00 | 0.00 | 0.00 | 87 | 1028.1 |
| 20260506203655 | 56 | 166 | 2.0 | 3.0 | 0.00 | 0.00 | 0.00 | 87 | 1028.2 |
| 20260506203152 | 56 | 198 | 1.0 | 3.0 | 0.00 | 0.00 | 0.00 | 87 | 1028.2 |
| 20260506202650 | 56 | 269 | 1.0 | 2.0 | 0.00 | 0.00 | 0.00 | 88 | 1028.1 |
| 20260506202145 | 56 | 11 | 0.0 | 3.0 | 0.00 | 0.00 | 0.00 | 88 | 1027.9 |
| 20260506201642 | 56 | 3 | 2.0 | 2.0 | 0.00 | 0.00 | 0.00 | 87 | 1028.3 |
| 20260506201139 | 57 | 129 | 0.0 | 2.0 | 0.00 | 0.00 | 0.00 | 87 | 1027.9 |
| 20260506200635 | 57 | 18 | 0.0 | 3.0 | 0.00 | 0.00 | 0.00 | 87 | 1028.3 |
| 20260506200132 | 56 | 10 | 1.0 | 4.0 | 0.00 | 0.00 | 0.00 | 87 | 1028.2 |
| 20260506195629 | 56 | 151 | 1.0 | 3.0 | 0.00 | 0.00 | 0.00 | 88 | 1027.9 |
| 20260506195125 | 56 | 34 | 2.0 | 2.0 | 0.00 | 0.00 | 0.00 | 88 | 1028.0 |
| 20260506194623 | 56 | 345 | 0.0 | 3.0 | 0.00 | 0.00 | 0.00 | 88 | 1027.8 |
| 20260506194119 | 56 | 169 | 2.0 | 3.0 | 0.00 | 0.00 | 0.00 | 87 | 1027.7 |
| 20260506193617 | 56 | 48 | 1.0 | 2.0 | 0.00 | 0.00 | 0.00 | 89 | 1027.8 |
| 20260506193114 | 56 | 156 | 0.0 | 4.0 | 0.00 | 0.00 | 0.00 | 89 | 1027.7 |
| 20260506192611 | 56 | 5 | 0.0 | 3.0 | 0.00 | 0.00 | 0.00 | 90 | 1027.8 |
| 20260506192106 | 56 | 179 | 1.0 | 2.0 | 0.00 | 0.00 | 0.00 | 89 | 1027.7 |
| 20260506191603 | 56 | 342 | 1.0 | 2.0 | 0.00 | 0.00 | 0.00 | 91 | 1027.7 |
| 20260506191059 | 56 | 48 | 0.0 | 3.0 | 0.00 | 0.00 | 0.00 | 92 | 1027.8 |
| 20260506190557 | 56 | 134 | 0.0 | 2.0 | 0.00 | 0.00 | 0.00 | 92 | 1027.6 |
| 20260506190054 | 56 | 228 | 1.0 | 2.0 | 0.00 | 0.00 | 0.00 | 91 | 1027.8 |
| 20260506185551 | 56 | 305 | 2.0 | 2.0 | 0.00 | 0.00 | 0.00 | 92 | 1028.0 |
| 20260506185047 | 55 | 180 | 0.0 | 2.0 | 0.00 | 0.00 | 0.00 | 93 | 1027.7 |
| 20260506184545 | 55 | 10 | 1.0 | 3.0 | 0.00 | 0.00 | 0.00 | 92 | 1027.8 |
| 20260506184042 | 55 | 16 | 3.0 | 3.0 | 0.00 | 0.00 | 0.00 | 92 | 1027.6 |
| 20260506183538 | 55 | 94 | 1.0 | 3.0 | 0.00 | 0.00 | 0.00 | 92 | 1027.7 |
| 20260506183034 | 55 | 46 | 2.0 | 3.0 | 0.00 | 0.00 | 0.00 | 92 | 1027.6 |
| 20260506182532 | 55 | 107 | 1.0 | 2.0 | 0.00 | 0.00 | 0.00 | 92 | 1027.6 |
| 20260506182029 | 55 | 96 | 3.0 | 3.0 | 0.00 | 0.00 | 0.00 | 91 | 1027.7 |
| 20260506181527 | 55 | 226 | 1.0 | 2.0 | 0.00 | 0.00 | 0.00 | 91 | 1027.7 |
| 20260506181023 | 55 | 219 | 0.0 | 2.0 | 0.00 | 0.00 | 0.00 | 93 | 1027.4 |
| 20260506180520 | 55 | 250 | 0.0 | 2.0 | 0.00 | 0.00 | 0.00 | 91 | 1027.6 |
| 20260506180017 | 55 | 1 | 0.0 | 2.0 | 0.00 | 0.00 | 0.00 | 92 | 1027.5 |
| 20260506175513 | 55 | 285 | 2.0 | 3.0 | 0.00 | 0.00 | 0.00 | 93 | 1027.5 |
| 20260506175010 | 55 | 126 | 0.0 | 2.0 | 0.00 | 0.00 | 0.00 | 92 | 1027.2 |
| 20260506174508 | 55 | 89 | 0.0 | 2.0 | 0.00 | 0.00 | 0.00 | 93 | 1027.1 |
| 20260506174004 | 55 | 63 | 0.0 | 2.0 | 0.00 | 0.00 | 0.00 | 93 | 1027.3 |
| 20260506173502 | 55 | 326 | 0.0 | 3.0 | 0.00 | 0.00 | 0.00 | 92 | 1027.4 |
| 20260506172958 | 55 | 19 | 0.0 | 2.0 | 0.00 | 0.00 | 0.00 | 93 | 1027.3 |
| 20260506172456 | 54 | 22 | 0.0 | 2.0 | 0.00 | 0.00 | 0.00 | 93 | 1027.5 |
| 20260506171952 | 54 | 52 | 0.0 | 2.0 | 0.00 | 0.00 | 0.00 | 93 | 1027.6 |
| 20260506171449 | 54 | 229 | 0.0 | 2.0 | 0.00 | 0.00 | 0.00 | 93 | 1027.6 |
| 20260506170947 | 54 | 108 | 1.0 | 2.0 | 0.00 | 0.00 | 0.00 | 93 | 1027.4 |
| 20260506170444 | 54 | 330 | 0.0 | 2.0 | 0.00 | 0.00 | 0.00 | 93 | 1027.4 |
| 20260506165942 | 54 | 121 | 0.0 | 1.0 | 0.00 | 0.00 | 0.00 | 94 | 1027.4 |
| 20260506165440 | 54 | 236 | 1.0 | 2.0 | 0.00 | 0.00 | 0.00 | 93 | 1027.3 |
| 20260506164936 | 54 | 144 | 0.0 | 2.0 | 0.00 | 0.00 | 0.00 | 94 | 1027.3 |
| 20260506164433 | 54 | 101 | 1.0 | 2.0 | 0.00 | 0.00 | 0.00 | 94 | 1027.6 |
| 20260506163931 | 54 | 47 | 0.0 | 2.0 | 0.00 | 0.00 | 0.00 | 94 | 1027.3 |
| 20260506163425 | 54 | 115 | 0.0 | 2.0 | 0.00 | 0.00 | 0.00 | 94 | 1027.4 |
| 20260506162921 | 54 | 347 | 0.0 | 1.0 | 0.00 | 0.00 | 0.00 | 94 | 1027.2 |
| 20260506162419 | 54 | 258 | 1.0 | 2.0 | 0.00 | 0.00 | 0.00 | 94 | 1027.1 |
| 20260506161916 | 54 | 110 | 0.0 | 2.0 | 0.00 | 0.00 | 0.00 | 94 | 1027.1 |
| 20260506161414 | 54 | 150 | 0.0 | 2.0 | 0.00 | 0.00 | 0.00 | 95 | 1027.4 |
| 20260506160911 | 53 | 207 | 0.0 | 2.0 | 0.00 | 0.00 | 0.00 | 94 | 1027.2 |
| 20260506160408 | 53 | 227 | 0.0 | 1.0 | 0.00 | 0.00 | 0.00 | 94 | 1027.2 |
| 20260506155906 | 53 | 262 | 0.0 | 2.0 | 0.00 | 0.00 | 0.00 | 94 | 1026.9 |
| 20260506155403 | 53 | 153 | 0.0 | 2.0 | 0.00 | 0.00 | 0.00 | 94 | 1026.6 |
| 20260506153525 | 53 | 128 | 2.0 | 2.0 | 0.00 | 0.00 | 0.00 | 94 | 1027.2 |
| 20260506153022 | 53 | 107 | 1.0 | 3.0 | 0.00 | 0.00 | 0.00 | 93 | 1027.2 |
| 20260506152519 | 53 | 116 | 0.0 | 3.0 | 0.00 | 0.00 | 0.00 | 93 | 1027.2 |
| 20260506152018 | 53 | 42 | 0.0 | 3.0 | 0.00 | 0.00 | 0.00 | 93 | 1027.3 |
| 20260506151515 | 53 | 216 | 0.0 | 2.0 | 0.00 | 0.00 | 0.00 | 92 | 1027.2 |
| 20260506151012 | 53 | 104 | 1.0 | 2.0 | 0.00 | 0.00 | 0.00 | 93 | 1027.2 |
| 20260506150508 | 53 | 13 | 2.0 | 2.0 | 0.00 | 0.00 | 0.00 | 93 | 1027.2 |
| 20260506150005 | 53 | 358 | 0.0 | 2.0 | 0.00 | 0.00 | 0.00 | 93 | 1027.0 |
| 20260506145501 | 53 | 255 | 0.0 | 3.0 | 0.00 | 0.00 | 0.00 | 92 | 1026.9 |
| 20260506144959 | 53 | 326 | 0.0 | 2.0 | 0.00 | 0.00 | 0.00 | 93 | 1026.9 |
| 20260506144456 | 53 | 55 | 0.0 | 2.0 | 0.00 | 0.00 | 0.00 | 93 | 1027.1 |
| 20260506143954 | 53 | 113 | 1.0 | 2.0 | 0.00 | 0.00 | 0.00 | 94 | 1027.0 |
| 20260506143451 | 53 | 39 | 0.0 | 2.0 | 0.00 | 0.00 | 0.00 | 94 | 1027.0 |
| 20260506142949 | 53 | 91 | 2.0 | 3.0 | 0.00 | 0.00 | 0.00 | 94 | 1027.0 |
| 20260506142446 | 53 | 70 | 1.0 | 3.0 | 0.00 | 0.00 | 0.00 | 94 | 1026.9 |
| 20260506141944 | 53 | 33 | 0.0 | 2.0 | 0.00 | 0.00 | 0.00 | 94 | 1026.8 |
| 20260506141442 | 53 | 76 | 0.0 | 2.0 | 0.00 | 0.00 | 0.00 | 94 | 1026.8 |
| 20260506140940 | 53 | 109 | 1.0 | 2.0 | 0.00 | 0.00 | 0.00 | 94 | 1026.9 |
| 20260506140437 | 53 | 114 | 0.0 | 2.0 | 0.00 | 0.00 | 0.00 | 94 | 1026.7 |
| 20260506135933 | 53 | 85 | 2.0 | 3.0 | 0.00 | 0.00 | 0.00 | 94 | 1026.9 |
| 20260506135431 | 53 | 93 | 2.0 | 3.0 | 0.00 | 0.00 | 0.00 | 94 | 1026.9 |
| 20260506134927 | 53 | 97 | 1.0 | 2.0 | 0.00 | 0.00 | 0.00 | 95 | 1026.8 |
| 20260506134423 | 53 | 71 | 2.0 | 3.0 | 0.00 | 0.00 | 0.00 | 94 | 1027.0 |
| 20260506133920 | 53 | 60 | 1.0 | 2.0 | 0.00 | 0.00 | 0.00 | 94 | 1026.9 |
| 20260506133417 | 53 | 77 | 0.0 | 2.0 | 0.00 | 0.00 | 0.00 | 95 | 1026.6 |
| 20260506132914 | 53 | 142 | 1.0 | 2.0 | 0.00 | 0.00 | 0.00 | 95 | 1026.7 |
| 20260506132411 | 53 | 83 | 1.0 | 3.0 | 0.00 | 0.00 | 0.00 | 95 | 1026.7 |
| 20260506131909 | 53 | 322 | 0.0 | 2.0 | 0.00 | 0.00 | 0.00 | 95 | 1026.5 |
| 20260506131405 | 53 | 63 | 1.0 | 2.0 | 0.00 | 0.00 | 0.00 | 95 | 1026.5 |
| 20260506130902 | 53 | 66 | 1.0 | 5.0 | 0.00 | 0.00 | 0.00 | 95 | 1026.5 |
| 20260506130358 | 53 | 81 | 0.0 | 2.0 | 0.00 | 0.00 | 0.00 | 95 | 1026.2 |
| 20260506125857 | 53 | 266 | 0.0 | 2.0 | 0.00 | 0.00 | 0.00 | 95 | 1026.3 |
| 20260506125355 | 53 | 95 | 2.0 | 3.0 | 0.00 | 0.00 | 0.00 | 95 | 1026.1 |
| 20260506124853 | 53 | 96 | 1.0 | 3.0 | 0.00 | 0.00 | 0.00 | 95 | 1026.4 |
| 20260506124349 | 53 | 235 | 0.0 | 2.0 | 0.00 | 0.00 | 0.00 | 95 | 1026.3 |
| 20260506123847 | 53 | 171 | 0.0 | 2.0 | 0.00 | 0.00 | 0.00 | 94 | 1026.3 |
| 20260506123345 | 53 | 52 | 0.0 | 1.0 | 0.00 | 0.00 | 0.00 | 95 | 1026.3 |
| 20260506122842 | 53 | 218 | 0.0 | 2.0 | 0.00 | 0.00 | 0.00 | 95 | 1026.1 |
| 20260506122339 | 53 | 286 | 0.0 | 2.0 | 0.00 | 0.00 | 0.00 | 95 | 1026.3 |
| 20260506121837 | 53 | 324 | 0.0 | 1.0 | 0.00 | 0.00 | 0.00 | 95 | 1026.2 |
| 20260506121333 | 53 | 111 | 1.0 | 3.0 | 0.00 | 0.00 | 0.00 | 95 | 1026.2 |
| 20260506120831 | 53 | 135 | 0.0 | 2.0 | 0.00 | 0.00 | 0.00 | 96 | 1026.2 |
| 20260506120329 | 53 | 20 | 2.0 | 4.0 | 0.00 | 0.00 | 0.00 | 96 | 1025.9 |
| 20260506115826 | 53 | 113 | 2.0 | 3.0 | 0.00 | 0.00 | 0.00 | 97 | 1026.4 |
| 20260506115324 | 53 | 62 | 0.0 | 3.0 | 0.00 | 0.00 | 0.00 | 97 | 1026.2 |
| 20260506114822 | 53 | 76 | 0.0 | 2.0 | 0.00 | 0.00 | 0.00 | 97 | 1026.0 |
| 20260506114319 | 53 | 135 | 2.0 | 3.0 | 0.00 | 0.00 | 0.00 | 97 | 1026.1 |
| 20260506113818 | 53 | 76 | 2.0 | 3.0 | 0.00 | 0.00 | 0.00 | 97 | 1026.0 |
| 20260506113315 | 53 | 94 | 0.0 | 2.0 | 0.00 | 0.00 | 0.00 | 97 | 1025.9 |
| 20260506112811 | 53 | 131 | 1.0 | 2.0 | 0.00 | 0.00 | 0.00 | 97 | 1025.9 |
| 20260506112309 | 53 | 126 | 0.0 | 2.0 | 0.00 | 0.00 | 0.00 | 97 | 1025.7 |
| 20260506111806 | 53 | 165 | 1.0 | 2.0 | 0.00 | 0.00 | 0.00 | 98 | 1025.7 |
| 20260506111304 | 53 | 99 | 1.0 | 2.0 | 0.00 | 0.00 | 0.00 | 98 | 1025.8 |
| 20260506110801 | 53 | 101 | 1.0 | 2.0 | 0.00 | 0.00 | 0.00 | 98 | 1025.8 |
| 20260506110258 | 53 | 83 | 2.0 | 3.0 | 0.00 | 0.00 | 0.00 | 98 | 1025.8 |
| 20260506105754 | 53 | 102 | 1.0 | 3.0 | 0.00 | 0.00 | 0.00 | 98 | 1025.5 |
| 20260506105252 | 53 | 97 | 3.0 | 3.0 | 0.00 | 0.00 | 0.00 | 98 | 1025.4 |
| 20260506104749 | 52 | 116 | 2.0 | 3.0 | 0.00 | 0.00 | 0.00 | 98 | 1025.4 |
| 20260506104247 | 52 | 85 | 1.0 | 3.0 | 0.00 | 0.00 | 0.00 | 98 | 1025.5 |
| 20260506103744 | 52 | 110 | 2.0 | 3.0 | 0.00 | 0.00 | 0.00 | 98 | 1025.4 |
| 20260506103241 | 52 | 101 | 2.0 | 3.0 | 0.00 | 0.00 | 0.00 | 98 | 1025.5 |
| 20260506102739 | 52 | 81 | 2.0 | 3.0 | 0.00 | 0.00 | 0.00 | 98 | 1025.4 |
| 20260506102237 | 52 | 121 | 1.0 | 3.0 | 0.00 | 0.00 | 0.00 | 98 | 1025.4 |
| 20260506101733 | 52 | 62 | 2.0 | 3.0 | 0.00 | 0.00 | 0.00 | 98 | 1025.3 |
| 20260506101230 | 52 | 121 | 2.0 | 2.0 | 0.00 | 0.00 | 0.00 | 98 | 1025.1 |
| 20260506100728 | 51 | 141 | 1.0 | 3.0 | 0.00 | 0.00 | 0.00 | 98 | 1025.2 |
| 20260506100226 | 51 | 98 | 1.0 | 3.0 | 0.00 | 0.00 | 0.00 | 98 | 1025.0 |
| 20260506095724 | 51 | 131 | 1.0 | 2.0 | 0.00 | 0.00 | 0.00 | 98 | 1025.0 |
| 20260506095220 | 51 | 107 | 1.0 | 2.0 | 0.00 | 0.00 | 0.00 | 98 | 1025.1 |
| 20260506094717 | 51 | 162 | 1.0 | 3.0 | 0.00 | 0.00 | 0.00 | 98 | 1025.3 |
| 20260506094215 | 51 | 129 | 0.0 | 2.0 | 0.00 | 0.00 | 0.00 | 98 | 1025.1 |
| 20260506093714 | 50 | 156 | 1.0 | 2.0 | 0.00 | 0.00 | 0.00 | 98 | 1025.0 |
| 20260506093210 | 50 | 72 | 1.0 | 2.0 | 0.00 | 0.00 | 0.00 | 98 | 1025.3 |
| 20260506092708 | 50 | 127 | 1.0 | 2.0 | 0.00 | 0.00 | 0.00 | 98 | 1025.1 |
| 20260506092206 | 50 | 139 | 1.0 | 2.0 | 0.00 | 0.00 | 0.00 | 98 | 1025.0 |
| 20260506091703 | 50 | 114 | 0.0 | 1.0 | 0.00 | 0.00 | 0.00 | 98 | 1025.0 |
| 20260506091200 | 50 | 150 | 0.0 | 2.0 | 0.00 | 0.00 | 0.00 | 98 | 1024.9 |
| 20260506090658 | 51 | 130 | 0.0 | 2.0 | 0.00 | 0.00 | 0.00 | 98 | 1024.9 |
| 20260506090155 | 51 | 144 | 0.0 | 2.0 | 0.00 | 0.00 | 0.00 | 98 | 1024.6 |
| 20260506085652 | 50 | 100 | 0.0 | 2.0 | 0.00 | 0.00 | 0.00 | 98 | 1024.8 |
| 20260506085148 | 51 | 65 | 0.0 | 2.0 | 0.00 | 0.00 | 0.00 | 98 | 1024.8 |
| 20260506084644 | 51 | 176 | 0.0 | 1.0 | 0.00 | 0.00 | 0.00 | 98 | 1024.8 |
| 20260506084141 | 51 | 205 | 0.0 | 2.0 | 0.00 | 0.00 | 0.00 | 98 | 1024.5 |
| 20260506083638 | 51 | 276 | 0.0 | 1.0 | 0.00 | 0.00 | 0.00 | 98 | 1024.6 |
| 20260506083136 | 51 | 81 | 1.0 | 1.0 | 0.00 | 0.00 | 0.00 | 98 | 1024.5 |
| 20260506082632 | 51 | 180 | 0.0 | 2.0 | 0.00 | 0.00 | 0.00 | 98 | 1024.5 |
| 20260506082128 | 51 | 159 | 0.0 | 2.0 | 0.00 | 0.00 | 0.00 | 98 | 1024.3 |
| 20260506081626 | 51 | 142 | 1.0 | 2.0 | 0.00 | 0.00 | 0.00 | 98 | 1024.3 |
| 20260506081124 | 51 | 215 | 0.0 | 2.0 | 0.00 | 0.00 | 0.00 | 98 | 1024.3 |
| 20260506080621 | 51 | 237 | 0.0 | 2.0 | 0.00 | 0.00 | 0.00 | 98 | 1024.3 |
| 20260506080118 | 51 | 149 | 0.0 | 1.0 | 0.00 | 0.00 | 0.00 | 98 | 1024.3 |
| 20260506073102 | 51 | 219 | 1.0 | 3.0 | 0.00 | 0.00 | 0.00 | 97 | 1024.2 |
| 20260506072558 | 51 | 228 | 2.0 | 2.0 | 0.00 | 0.00 | 0.00 | 97 | 1024.2 |
| 20260506072056 | 52 | 266 | 0.0 | 1.0 | 0.00 | 0.00 | 0.00 | 97 | 1024.2 |
| 20260506071554 | 51 | 14 | 0.0 | 1.0 | 0.00 | 0.00 | 0.00 | 97 | 1024.3 |
| 20260506071051 | 51 | 132 | 0.0 | 1.0 | 0.00 | 0.00 | 0.00 | 97 | 1024.2 |
| 20260506070548 | 52 | 79 | 1.0 | 1.0 | 0.00 | 0.00 | 0.00 | 97 | 1024.2 |
| 20260506062022 | 52 | 180 | 0.0 | 2.0 | 0.00 | 0.00 | 0.00 | 97 | 1023.9 |
| 20260506061518 | 52 | 36 | 0.0 | 1.0 | 0.00 | 0.00 | 0.00 | 97 | 1023.9 |
| 20260506061016 | 52 | 315 | 0.0 | 1.0 | 0.00 | 0.00 | 0.00 | 97 | 1023.8 |
| 20260506060514 | 53 | 9 | 0.0 | 2.0 | 0.00 | 0.00 | 0.00 | 97 | 1023.9 |
| 20260506050943 | 53 | 149 | 0.0 | 2.0 | 0.00 | 0.00 | 0.00 | 96 | 1023.3 |
| 20260506050441 | 53 | 227 | 1.0 | 2.0 | 0.00 | 0.00 | 0.00 | 95 | 1023.3 |
| 20260506044931 | 54 | 242 | 1.0 | 2.0 | 0.00 | 0.00 | 0.00 | 95 | 1023.2 |
| 20260506044429 | 54 | 262 | 1.0 | 2.0 | 0.00 | 0.00 | 0.00 | 95 | 1023.3 |
| 20260506043926 | 54 | 189 | 1.0 | 3.0 | 0.00 | 0.00 | 0.00 | 94 | 1023.4 |
| 20260506043423 | 54 | 231 | 0.0 | 2.0 | 0.00 | 0.00 | 0.00 | 94 | 1023.3 |
| 20260506042921 | 54 | 279 | 0.0 | 2.0 | 0.00 | 0.00 | 0.00 | 94 | 1023.2 |
| 20260506042420 | 54 | 83 | 0.0 | 1.0 | 0.00 | 0.00 | 0.00 | 94 | 1023.2 |
| 20260506041918 | 55 | 336 | 0.0 | 2.0 | 0.00 | 0.00 | 0.00 | 94 | 1023.1 |
| 20260506041415 | 55 | 186 | 0.0 | 2.0 | 0.00 | 0.00 | 0.00 | 94 | 1023.1 |
| 20260506040912 | 55 | 290 | 0.0 | 1.0 | 0.00 | 0.00 | 0.00 | 93 | 1023.0 |
| 20260506040410 | 55 | 257 | 0.0 | 2.0 | 0.00 | 0.00 | 0.00 | 93 | 1022.9 |
| 20260506035905 | 55 | 272 | 1.0 | 2.0 | 0.00 | 0.00 | 0.00 | 92 | 1023.0 |
| 20260506035403 | 55 | 304 | 0.0 | 2.0 | 0.00 | 0.00 | 0.00 | 92 | 1023.1 |
| 20260506034900 | 56 | 302 | 0.0 | 2.0 | 0.00 | 0.00 | 0.00 | 92 | 1023.1 |
| 20260506034358 | 56 | 286 | 0.0 | 1.0 | 0.00 | 0.00 | 0.00 | 91 | 1023.0 |
| 20260506033854 | 56 | 246 | 0.0 | 2.0 | 0.00 | 0.00 | 0.00 | 91 | 1023.0 |
| 20260506033351 | 56 | 242 | 0.0 | 2.0 | 0.00 | 0.00 | 0.00 | 90 | 1023.0 |
| 20260506032848 | 57 | 237 | 0.0 | 2.0 | 0.00 | 0.00 | 0.00 | 89 | 1022.9 |
| 20260506032345 | 57 | 225 | 1.0 | 2.0 | 0.00 | 0.00 | 0.00 | 89 | 1022.7 |
| 20260506031842 | 57 | 229 | 0.0 | 2.0 | 0.00 | 0.00 | 0.00 | 88 | 1022.8 |
| 20260506031339 | 57 | 260 | 1.0 | 2.0 | 0.00 | 0.00 | 0.00 | 87 | 1022.6 |
| 20260506030837 | 58 | 233 | 0.0 | 2.0 | 0.00 | 0.00 | 0.00 | 86 | 1022.5 |
| 20260506030335 | 58 | 249 | 0.0 | 2.0 | 0.00 | 0.00 | 0.00 | 86 | 1022.5 |
| 20260506025831 | 58 | 278 | 2.0 | 3.0 | 0.00 | 0.00 | 0.00 | 85 | 1022.6 |
| 20260506025327 | 59 | 299 | 1.0 | 2.0 | 0.00 | 0.00 | 0.00 | 84 | 1022.6 |
| 20260506024825 | 59 | 192 | 0.0 | 2.0 | 0.00 | 0.00 | 0.00 | 83 | 1022.5 |
| 20260506024321 | 59 | 240 | 0.0 | 2.0 | 0.00 | 0.00 | 0.00 | 83 | 1022.6 |
| 20260506023817 | 59 | 293 | 0.0 | 2.0 | 0.00 | 0.00 | 0.00 | 83 | 1022.4 |
| 20260506023314 | 59 | 211 | 1.0 | 2.0 | 0.00 | 0.00 | 0.00 | 83 | 1022.6 |
| 20260506022811 | 59 | 24 | 0.0 | 1.0 | 0.00 | 0.00 | 0.00 | 82 | 1022.4 |
| 20260506022309 | 59 | 315 | 0.0 | 1.0 | 0.00 | 0.00 | 0.00 | 82 | 1022.4 |
| 20260506021807 | 60 | 243 | 0.0 | 1.0 | 0.00 | 0.00 | 0.00 | 82 | 1022.7 |
| 20260506021303 | 60 | 269 | 0.0 | 1.0 | 0.00 | 0.00 | 0.00 | 82 | 1022.5 |
| 20260506020800 | 60 | 202 | 0.0 | 1.0 | 0.00 | 0.00 | 0.00 | 81 | 1022.4 |
| 20260506020258 | 60 | 171 | 0.0 | 1.0 | 0.00 | 0.00 | 0.00 | 81 | 1022.6 |
| 20260506015756 | 60 | 173 | 0.0 | 2.0 | 0.00 | 0.00 | 0.00 | 80 | 1022.4 |
| 20260506015253 | 60 | 187 | 0.0 | 1.0 | 0.00 | 0.00 | 0.00 | 80 | 1022.6 |
| 20260506014749 | 60 | 86 | 0.0 | 1.0 | 0.00 | 0.00 | 0.00 | 79 | 1022.7 |
| 20260506014246 | 60 | 86 | 0.0 | 2.0 | 0.00 | 0.00 | 0.00 | 80 | 1022.5 |
| 20260506013743 | 60 | 174 | 0.0 | 2.0 | 0.00 | 0.00 | 0.00 | 79 | 1022.7 |
| 20260506013240 | 60 | 14 | 0.0 | 2.0 | 0.00 | 0.00 | 0.00 | 80 | 1022.3 |
| 20260506012736 | 60 | 30 | 2.0 | 2.0 | 0.00 | 0.00 | 0.00 | 79 | 1022.7 |
| 20260506012234 | 60 | 141 | 1.0 | 2.0 | 0.00 | 0.00 | 0.00 | 78 | 1022.2 |
| 20260506011731 | 60 | 105 | 0.0 | 2.0 | 0.00 | 0.00 | 0.00 | 78 | 1022.5 |
| 20260506011227 | 60 | 140 | 0.0 | 2.0 | 0.00 | 0.00 | 0.00 | 78 | 1022.6 |
| 20260506010726 | 60 | 133 | 0.0 | 2.0 | 0.00 | 0.00 | 0.00 | 79 | 1022.6 |
| 20260506010222 | 60 | 78 | 0.0 | 2.0 | 0.00 | 0.00 | 0.00 | 80 | 1022.6 |
| 20260506005720 | 60 | 125 | 1.0 | 2.0 | 0.00 | 0.00 | 0.00 | 79 | 1022.8 |
| 20260506005216 | 60 | 98 | 1.0 | 2.0 | 0.00 | 0.00 | 0.00 | 80 | 1022.8 |
| 20260506004712 | 60 | 120 | 2.0 | 2.0 | 0.00 | 0.00 | 0.00 | 79 | 1022.8 |
| 20260506004210 | 60 | 60 | 0.0 | 2.0 | 0.00 | 0.00 | 0.00 | 77 | 1022.7 |
| 20260506003706 | 60 | 103 | 1.0 | 3.0 | 0.00 | 0.00 | 0.00 | 78 | 1022.7 |
| 20260506003202 | 61 | 110 | 2.0 | 3.0 | 0.00 | 0.00 | 0.00 | 77 | 1022.6 |
| 20260506002658 | 61 | 149 | 2.0 | 2.0 | 0.00 | 0.00 | 0.00 | 77 | 1022.8 |
| 20260506002155 | 61 | 47 | 0.0 | 2.0 | 0.00 | 0.00 | 0.00 | 76 | 1022.8 |
| 20260506001650 | 62 | 137 | 2.0 | 3.0 | 0.00 | 0.00 | 0.00 | 76 | 1022.6 |
| 20260506001148 | 62 | 117 | 2.0 | 3.0 | 0.00 | 0.00 | 0.00 | 77 | 1022.8 |
| 20260506000645 | 61 | 204 | 0.0 | 4.0 | 0.00 | 0.00 | 0.00 | 77 | 1022.9 |
| 20260506000142 | 61 | 44 | 3.0 | 4.0 | 0.00 | 0.00 | 0.00 | 77 | 1022.9 |
| 20260505235640 | 61 | 75 | 3.0 | 3.0 | 0.00 | 0.00 | 0.00 | 77 | 1022.9 |
| 20260505235138 | 61 | 104 | 3.0 | 3.0 | 0.00 | 0.00 | 0.00 | 78 | 1022.9 |
| 20260505234634 | 60 | 39 | 4.0 | 6.0 | 0.00 | 0.00 | 0.00 | 78 | 1023.0 |
| 20260505234131 | 61 | 89 | 3.0 | 3.0 | 0.00 | 0.00 | 0.00 | 77 | 1023.1 |
| 20260505233628 | 61 | 82 | 0.0 | 3.0 | 0.00 | 0.00 | 0.00 | 78 | 1023.0 |
| 20260505233126 | 61 | 55 | 2.0 | 3.0 | 0.00 | 0.00 | 0.00 | 77 | 1023.2 |
| 20260505232623 | 61 | 63 | 1.0 | 2.0 | 0.00 | 0.00 | 0.00 | 78 | 1023.1 |
| 20260505232120 | 60 | 63 | 3.0 | 4.0 | 0.00 | 0.00 | 0.00 | 78 | 1023.1 |
| 20260505231617 | 61 | 73 | 4.0 | 4.0 | 0.00 | 0.00 | 0.00 | 78 | 1023.2 |